Flag for Russia Weather past 2 weeks in Ulyanovsk, Russia

Now
64 °F

Broken clouds.


Feels Like: 64 °F
Forecast: 58 / 77 °F
Wind: 15 mph from Southwest

Location: Ulyanovsk

Current Time: Jul 8, 2015 at 10:24:54 AM

Latest Report: Jul 8, 2015 at 9:00 AM


Visibility: 5 mi

Pressure: 29.65 "Hg

Humidity: 64%

Dew point: 52 °F

Location of UlyanovskLocation

Historic Weather in Ulyanovsk — Graph

°F

Ulyanovsk temperature yesterday

Maximum temperature yesterday: 68 °F (at 3:00 PM)
Minimum temperature yesterday: 50 °F (at 3:00 AM)
Average temperature yesterday: 59 °F

Past Weeks' High & Low Weather Summary

 TemperatureHumidityPressure
High91 °F (Jun 28, 1:00 PM)94% (Jun 24, 2:00 AM)30.07 "Hg (Jun 24, 2:00 AM)
Low50 °F (Jul 7, 3:00 AM)37% (Jul 2, 2:00 PM)29.59 "Hg (Jun 28, 5:00 PM)
Average72 °F65%29.81 "Hg
* Reported Jun 23 9:00 AM — Jul 8 9:00 AM, Ulyanovsk, Weather by CustomWeather, © 2015

Note: Actual official high and low records may vary slightly from our data, if they occured in-between our weather recording intervals... More about our weather records

Advertising

Ulyanovsk weather history for previous 24 hours

 ConditionsComfort  
Time TempWeatherWind HumidityBarometerVisibility
9:00 AM
Wed, Jul 8
64 °FBroken clouds.15 mph64%29.65 "Hg5 mi
8:00 AM59 °FBroken clouds.15 mph77%29.68 "Hg5 mi
7:00 AM57 °FMostly cloudy.10 mph77%29.71 "Hg5 mi
6:00 AM57 °FMore clouds than sun.10 mph88%29.71 "Hg5 mi
5:00 AM57 °FSprinkles. More clouds than sun.6 mph82%29.77 "Hg5 mi
4:00 AM59 °FSprinkles. Mostly cloudy.6 mph77%29.77 "Hg5 mi
3:00 AM59 °FSprinkles. Mostly cloudy.3 mph77%29.77 "Hg3 mi
2:00 AM59 °FClear.1 mph72%29.77 "HgN/A
1:00 AM61 °FClear.6 mph63%29.80 "HgN/A
12:00 AM59 °FClear.6 mph68%29.80 "HgN/A
11:00 PM
Tue, Jul 7
59 °FClear.3 mph63%29.83 "HgN/A
10:00 PM57 °FClear.3 mph63%29.83 "HgN/A
9:00 PM59 °FClear.3 mph51%29.83 "HgN/A
8:00 PM63 °FClear.3 mph39%29.83 "Hg5 mi
7:00 PM66 °FClear.3 mph40%29.83 "Hg5 mi
6:00 PM68 °FClear.8 mph38%29.83 "Hg5 mi
5:00 PM68 °FClear.6 mph38%29.86 "Hg5 mi
4:00 PM66 °FPassing clouds.10 mph40%29.86 "Hg5 mi
3:00 PM68 °FScattered clouds.6 mph38%29.89 "Hg5 mi
2:00 PM66 °FScattered clouds.8 mph37%29.89 "Hg5 mi
1:00 PM63 °FScattered clouds.10 mph42%29.89 "Hg5 mi
12:00 PM63 °FScattered clouds.10 mph42%29.89 "Hg5 mi
11:00 AM63 °FScattered clouds.8 mph42%29.92 "Hg5 mi
10:00 AM61 °FScattered clouds.8 mph45%29.92 "Hg5 mi
Weather by CustomWeather, © 2015

See weather overviewHow to use our weather pages